FW2982 Weather Reports


Display with metric or nautical units.
time (UTC)temp
F
wind
direction
speed
MPH
gust
MPH
rain 1hr
in
rain 24hr
in
rain mn
in
humidity
%
barometer
mb
20260509235737 69 168 0.0 0.0 0.00 0.00 0.00 67 1006.0
20260509234954 69 168 0.0 0.0 0.00 0.00 0.00 64 1006.1
20260509234455 70 168 0.0 0.0 0.00 0.00 0.00 63 1006.0
20260509233954 70 168 0.0 0.0 0.00 0.00 0.00 62 1005.9
20260509233454 71 168 0.0 1.0 0.00 0.00 0.00 62 1006.0
20260509232955 71 168 0.0 2.0 0.00 0.00 0.00 61 1005.9
20260509232454 71 168 0.0 2.0 0.00 0.00 0.00 61 1005.9
20260509231955 71 169 0.0 1.0 0.00 0.00 0.00 60 1005.9
20260509231733 71 169 0.0 0.0 0.00 0.00 0.00 59 1005.9
20260509230953 71 169 0.0 0.0 0.00 0.00 0.00 59 1005.9
20260509230454 71 169 0.0 1.0 0.00 0.00 0.00 58 1005.8
20260509225954 72 169 0.0 1.0 0.00 0.00 0.00 58 1005.8
20260509225455 72 169 0.0 2.0 0.00 0.00 0.00 57 1005.9
20260509225305 72 162 1.0 3.0 0.00 0.00 0.00 55 1005.8
20260509225011 72 169 0.0 3.0 0.00 0.00 0.00 55 1005.8
20260509223953 73 333 0.0 1.0 0.00 0.00 0.00 54 1005.9
20260509223454 73 333 0.0 2.0 0.00 0.00 0.00 53 1005.9
20260509222954 74 333 0.0 2.0 0.00 0.00 0.00 53 1005.8
20260509222455 74 334 0.0 3.0 0.00 0.00 0.00 51 1005.7
20260509221953 74 333 0.0 3.0 0.00 0.00 0.00 52 1005.8
20260509221452 74 148 0.0 3.0 0.00 0.00 0.00 53 1005.9
20260509220940 74 148 0.0 3.0 0.00 0.00 0.00 53 1005.8
20260509220442 74 100 0.0 2.0 0.00 0.00 0.00 53 1005.9
20260509215940 74 100 0.0 2.0 0.00 0.00 0.00 53 1005.8
20260509215439 75 100 0.0 2.0 0.00 0.00 0.00 52 1005.8
20260509214938 75 100 0.0 2.0 0.00 0.00 0.00 53 1005.7
20260509214436 74 100 0.0 2.0 0.00 0.00 0.00 55 1005.8
20260509214217 75 100 1.0 2.0 0.00 0.00 0.00 55 1005.8
20260509213435 75 97 0.0 2.0 0.00 0.00 0.00 54 1005.8
20260509212936 74 96 0.0 3.0 0.00 0.00 0.00 54 1005.8
20260509212432 74 83 2.0 4.0 0.00 0.00 0.00 54 1005.7
20260509211931 74 90 1.0 4.0 0.00 0.00 0.00 55 1005.7
20260509211431 74 213 1.0 4.0 0.00 0.00 0.00 53 1005.7
20260509210932 74 148 1.0 3.0 0.00 0.00 0.00 53 1005.7
20260509210433 75 262 1.0 3.0 0.00 0.00 0.00 52 1005.7
20260509205932 75 314 0.0 3.0 0.00 0.00 0.00 54 1005.8
20260509205432 75 7 2.0 3.0 0.00 0.00 0.00 52 1005.7
20260509205214 76 307 1.0 3.0 0.00 0.00 0.00 54 1005.8
20260509204430 75 48 1.0 5.0 0.00 0.00 0.00 55 1005.7
20260509203930 74 75 1.0 5.0 0.00 0.00 0.00 54 1005.7
20260509203421 75 275 2.0 5.0 0.00 0.00 0.00 54 1005.8
20260509202920 75 288 2.0 5.0 0.00 0.00 0.00 55 1005.6
20260509202420 75 204 2.0 5.0 0.00 0.00 0.00 53 1005.6
20260509201919 74 224 1.0 4.0 0.00 0.00 0.00 55 1005.6
20260509201419 74 238 1.0 7.0 0.00 0.00 0.00 57 1005.7
20260509200906 74 92 3.0 7.0 0.00 0.00 0.00 55 1005.7
20260509200407 74 44 2.0 6.0 0.00 0.00 0.00 55 1005.8
20260509195930 74 221 1.0 6.0 0.00 0.00 0.00 55 1006.1
20260509195921 74 58 2.0 6.0 0.00 0.00 0.00 56 1005.8
20260509194905 74 227 2.0 7.0 0.00 0.00 0.00 54 1006.1
20260509194404 74 286 1.0 7.0 0.00 0.00 0.00 55 1006.2
20260509193905 74 216 0.0 10.0 0.00 0.00 0.00 54 1006.3
20260509193406 73 127 2.0 10.0 0.00 0.00 0.00 55 1006.2
20260509192903 73 251 1.0 6.0 0.00 0.00 0.00 56 1006.4
20260509192402 73 334 2.0 6.0 0.00 0.00 0.00 55 1006.5
20260509191902 73 96 2.0 4.0 0.00 0.00 0.00 56 1006.7
20260509191403 73 266 1.0 4.0 0.00 0.00 0.00 58 1006.7
20260509190903 73 247 2.0 4.0 0.00 0.00 0.00 58 1006.8
20260509190401 73 303 1.0 2.0 0.00 0.00 0.00 58 1006.8
20260509185857 72 240 1.0 3.0 0.00 0.00 0.00 59 1006.8
20260509185356 71 99 1.0 4.0 0.00 0.00 0.00 59 1006.7
20260509184857 72 188 2.0 4.0 0.00 0.00 0.00 59 1006.6
20260509184354 73 250 1.0 3.0 0.00 0.00 0.00 59 1006.7
20260509184137 71 285 0.0 4.0 0.00 0.00 0.00 61 1006.8
20260509183355 71 285 0.0 4.0 0.00 0.00 0.00 60 1006.7
20260509182852 71 168 1.0 3.0 0.00 0.00 0.00 59 1007.0
20260509182352 71 296 2.0 3.0 0.00 0.00 0.00 64 1007.0
20260509182132 70 264 0.0 1.0 0.00 0.00 0.00 64 1007.0
20260509181352 71 264 0.0 2.0 0.00 0.00 0.00 62 1007.1
20260509180850 71 264 0.0 2.0 0.00 0.00 0.00 61 1007.2
20260509180350 71 255 0.0 2.0 0.00 0.00 0.00 59 1007.4
20260509180130 70 254 0.0 2.0 0.00 0.00 0.00 61 1007.6
20260509175346 70 257 0.0 2.0 0.00 0.00 0.00 62 1007.7
20260509174847 70 254 0.0 2.0 0.00 0.00 0.00 60 1007.9
20260509174347 71 254 1.0 2.0 0.00 0.00 0.00 61 1007.9
20260509173846 71 345 0.0 2.0 0.00 0.00 0.00 59 1007.9
20260509173348 72 276 0.0 2.0 0.00 0.00 0.00 58 1007.8
20260509173126 71 275 0.0 3.0 0.00 0.00 0.00 61 1007.8
20260509172347 72 271 1.0 5.0 0.00 0.00 0.00 57 1007.8
20260509172154 74 241 1.0 4.0 0.00 0.00 0.00 58 1007.8
20260509172149 73 324 1.0 5.0 0.00 0.00 0.00 57 1007.8
20260509170847 74 158 1.0 5.0 0.00 0.00 0.00 57 1007.8
20260509170346 73 326 1.0 5.0 0.00 0.00 0.00 58 1007.8
20260509165846 71 257 1.0 6.0 0.00 0.00 0.00 58 1007.9
20260509165346 71 351 2.0 6.0 0.00 0.00 0.00 58 1008.0
20260509164846 71 75 3.0 5.0 0.00 0.00 0.00 59 1008.1
20260509164345 70 265 1.0 5.0 0.00 0.00 0.00 60 1008.1
20260509163846 69 130 1.0 3.0 0.00 0.00 0.00 61 1008.1
20260509163627 69 66 0.0 5.0 0.00 0.00 0.00 61 1008.2
20260509162846 69 226 2.0 5.0 0.00 0.00 0.00 60 1008.2
20260509162346 70 182 2.0 9.0 0.00 0.00 0.00 59 1008.2
20260509161846 70 233 1.0 9.0 0.00 0.00 0.00 60 1008.1
20260509161345 70 310 0.0 4.0 0.00 0.00 0.00 58 1008.1
20260509160845 71 0 1.0 4.0 0.00 0.00 0.00 57 1008.1
20260509160345 72 238 1.0 5.0 0.00 0.00 0.00 58 1008.1
20260509155843 72 268 2.0 5.0 0.00 0.00 0.00 58 1008.1
20260509155339 71 80 1.0 4.0 0.00 0.00 0.00 59 1008.1
20260509154837 70 217 1.0 4.0 0.00 0.00 0.00 56 1008.2
20260509154338 71 279 2.0 4.0 0.00 0.00 0.00 56 1008.4
20260509153837 71 354 1.0 4.0 0.00 0.00 0.00 56 1008.3
20260509153617 72 279 2.0 4.0 0.00 0.00 0.00 57 1008.3
20260509152833 72 200 2.0 5.0 0.00 0.00 0.00 58 1008.3
20260509152331 71 92 2.0 5.0 0.00 0.00 0.00 57 1008.4
20260509151830 74 258 2.0 4.0 0.00 0.00 0.00 54 1008.3
20260509151331 73 265 1.0 6.0 0.00 0.00 0.00 55 1008.4
20260509150833 72 213 2.0 6.0 0.00 0.00 0.00 57 1008.4
20260509150332 71 278 1.0 4.0 0.00 0.00 0.00 57 1008.5
20260509145830 71 307 1.0 4.0 0.00 0.00 0.00 55 1008.6
20260509145333 71 140 2.0 3.0 0.00 0.00 0.00 56 1008.5
20260509144332 67 144 2.0 6.0 0.00 0.00 0.00 60 1008.8
20260509143831 68 240 0.0 3.0 0.00 0.00 0.00 60 1008.8
20260509143611 67 255 1.0 3.0 0.00 0.00 0.00 61 1008.8
20260509142831 66 37 1.0 2.0 0.00 0.00 0.00 64 1008.9
20260509142333 65 169 1.0 7.0 0.00 0.00 0.00 64 1009.0
20260509141833 64 121 1.0 7.0 0.00 0.00 0.00 63 1009.0
20260509141331 64 100 1.0 3.0 0.00 0.00 0.00 64 1009.1
20260509140832 63 23 0.0 2.0 0.00 0.00 0.00 67 1009.1
20260509140333 62 23 1.0 2.0 0.00 0.00 0.00 65 1009.1
20260509135831 61 41 1.0 3.0 0.00 0.00 0.00 66 1009.0
20260509135333 60 186 1.0 3.0 0.00 0.00 0.00 66 1008.9
20260509135113 60 209 0.0 3.0 0.00 0.00 0.00 68 1009.0
20260509134612 60 210 0.0 3.0 0.00 0.00 0.00 67 1009.1
20260509133834 60 298 1.0 3.0 0.00 0.00 0.00 69 1009.2
20260509133332 60 289 0.0 4.0 0.00 0.00 0.00 68 1009.1
20260509132831 60 289 0.0 4.0 0.00 0.00 0.00 67 1009.1
20260509132332 60 292 1.0 4.0 0.00 0.00 0.00 68 1009.2
20260509131832 59 252 0.0 2.0 0.00 0.00 0.00 68 1009.1
20260509131333 59 306 0.0 2.0 0.00 0.00 0.00 69 1009.2
20260509130833 60 306 0.0 3.0 0.00 0.00 0.00 68 1009.2
20260509130611 59 306 1.0 3.0 0.00 0.00 0.00 66 1009.2
20260509125831 59 298 1.0 3.0 0.00 0.00 0.00 67 1009.1
20260509125333 59 45 0.0 4.0 0.00 0.00 0.00 69 1009.1
20260509124831 59 35 1.0 4.0 0.00 0.00 0.00 67 1009.0
20260509124330 59 69 0.0 3.0 0.00 0.00 0.00 67 1009.0
20260509123833 58 109 1.0 3.0 0.00 0.00 0.00 67 1009.1
20260509123331 59 128 0.0 2.0 0.00 0.00 0.00 67 1008.9
20260509122833 58 216 0.0 5.0 0.00 0.00 0.00 66 1009.0
20260509122333 58 303 1.0 5.0 0.00 0.00 0.00 67 1008.9
20260509122112 58 259 1.0 3.0 0.00 0.00 0.00 67 1009.0
20260509121332 58 234 0.0 2.0 0.00 0.00 0.00 68 1009.0
20260509120831 58 235 0.0 2.0 0.00 0.00 0.00 68 1009.0
20260509120332 58 230 1.0 3.0 0.00 0.00 0.00 67 1009.1
20260509115831 58 247 1.0 3.0 0.00 0.00 0.00 66 1008.9
20260509115354 58 140 0.0 4.0 0.00 0.00 0.00 67 1008.9
20260509115347 58 179 1.0 3.0 0.00 0.00 0.00 68 1008.8
20260509114331 58 140 0.0 4.0 0.00 0.00 0.00 66 1008.9
20260509113829 58 234 0.0 2.0 0.00 0.00 0.00 67 1009.0
20260509113329 58 235 1.0 4.0 0.00 0.00 0.00 66 1009.0
20260509112829 58 66 1.0 4.0 0.00 0.00 0.00 65 1008.9
20260509112331 57 148 0.0 4.0 0.00 0.00 0.00 66 1008.8
20260509111828 58 176 1.0 3.0 0.00 0.00 0.00 66 1008.7
20260509111327 58 121 0.0 3.0 0.00 0.00 0.00 66 1008.8
20260509110824 58 120 0.0 2.0 0.00 0.00 0.00 64 1008.8
20260509110325 58 24 0.0 1.0 0.00 0.00 0.00 63 1008.7
20260509105822 58 24 0.0 2.0 0.00 0.00 0.00 63 1008.7
20260509105348 58 264 0.0 2.0 0.00 0.00 0.00 61 1008.6
20260509105340 58 24 0.0 2.0 0.00 0.00 0.00 61 1008.6
20260509104323 57 10 0.0 4.0 0.00 0.00 0.00 62 1008.6
20260509103823 58 10 1.0 4.0 0.00 0.00 0.00 63 1008.6
20260509103324 58 220 0.0 2.0 0.00 0.00 0.00 60 1008.5
20260509102823 58 220 0.0 2.0 0.00 0.00 0.00 62 1008.6
20260509102322 57 220 1.0 3.0 0.00 0.00 0.00 61 1008.5
20260509101820 57 220 0.0 3.0 0.00 0.00 0.00 63 1008.5
20260509101320 57 220 0.0 2.0 0.00 0.00 0.00 64 1008.4
20260509100821 58 220 0.0 2.0 0.00 0.00 0.00 61 1008.4
20260509100319 58 219 0.0 3.0 0.00 0.00 0.00 62 1008.4
20260509095815 58 219 1.0 4.0 0.00 0.00 0.00 60 1008.3
20260509095314 58 216 2.0 4.0 0.00 0.00 0.00 60 1008.3
20260509095056 58 212 1.0 2.0 0.00 0.00 0.00 61 1008.2
20260509094316 58 212 1.0 4.0 0.00 0.00 0.00 61 1008.2
20260509093815 58 212 1.0 4.0 0.00 0.00 0.00 60 1008.2
20260509093313 58 226 1.0 3.0 0.00 0.00 0.00 60 1008.3
20260509092811 57 230 2.0 3.0 0.00 0.00 0.00 60 1008.4
20260509092308 57 245 0.0 2.0 0.00 0.00 0.00 60 1008.5
20260509092050 57 245 1.0 4.0 0.00 0.00 0.00 61 1008.6
20260509091307 57 247 2.0 4.0 0.00 0.00 0.00 60 1008.6
20260509090804 57 223 2.0 4.0 0.00 0.00 0.00 61 1008.6
20260509090305 57 224 1.0 3.0 0.00 0.00 0.00 61 1008.7
20260509085803 57 226 2.0 3.0 0.00 0.00 0.00 62 1008.7
20260509085306 57 49 1.0 3.0 0.00 0.00 0.00 61 1008.6
20260509084803 57 224 1.0 4.0 0.00 0.00 0.00 61 1008.8
20260509084302 56 223 0.0 4.0 0.00 0.00 0.00 63 1008.7
20260509083803 56 89 0.0 3.0 0.00 0.00 0.00 63 1008.8
20260509083302 56 87 0.0 3.0 0.00 0.00 0.00 63 1008.8
20260509082803 57 157 1.0 3.0 0.00 0.00 0.00 63 1008.9
20260509082306 57 353 1.0 4.0 0.00 0.00 0.00 63 1008.9
20260509081802 57 216 2.0 4.0 0.00 0.00 0.00 62 1008.8
20260509081303 56 275 1.0 4.0 0.00 0.00 0.00 64 1009.0
20260509080803 56 262 1.0 4.0 0.00 0.00 0.00 63 1009.0
20260509080302 56 314 1.0 4.0 0.00 0.00 0.00 63 1009.1
20260509075802 56 329 1.0 4.0 0.00 0.00 0.00 63 1009.1
20260509075544 57 247 1.0 2.0 0.00 0.00 0.00 63 1009.2
20260509074802 57 340 1.0 3.0 0.00 0.00 0.00 63 1009.2
20260509074303 57 209 1.0 4.0 0.00 0.00 0.00 61 1009.3
20260509073803 57 231 1.0 4.0 0.00 0.00 0.00 61 1009.3
20260509073256 57 207 1.0 6.0 0.00 0.00 0.00 61 1009.3
20260509072755 57 221 1.0 6.0 0.00 0.00 0.00 61 1009.3
20260509072535 57 0 1.0 3.0 0.00 0.00 0.00 62 1009.3
20260509071755 57 214 0.0 3.0 0.00 0.00 0.00 62 1009.2
20260509071256 57 221 0.0 3.0 0.00 0.00 0.00 63 1009.3
20260509070754 57 147 1.0 2.0 0.00 0.00 0.00 62 1009.2
20260509070252 57 61 1.0 2.0 0.00 0.00 0.00 61 1009.2
20260509065751 57 79 1.0 3.0 0.00 0.00 0.00 61 1009.2
20260509065251 57 355 1.0 3.0 0.00 0.00 0.00 61 1009.3
20260509064751 57 233 1.0 3.0 0.00 0.00 0.00 60 1009.3
20260509064249 57 189 1.0 2.0 0.00 0.00 0.00 60 1009.3
20260509063750 58 189 1.0 3.0 0.00 0.00 0.00 58 1009.3
20260509063251 58 213 1.0 3.0 0.00 0.00 0.00 58 1009.3
20260509062750 58 219 1.0 2.0 0.00 0.00 0.00 58 1009.4
20260509062519 58 309 1.0 4.0 0.00 0.00 0.00 59 1009.4
20260509061743 58 309 1.0 4.0 0.00 0.00 0.00 58 1009.5
20260509061240 58 250 1.0 4.0 0.00 0.00 0.00 57 1009.5
20260509060739 58 257 0.0 4.0 0.00 0.00 0.00 57 1009.6
20260509060235 58 258 2.0 4.0 0.00 0.00 0.00 57 1009.6
20260509060017 58 213 1.0 3.0 0.00 0.00 0.00 58 1009.5
20260509055516 58 212 0.0 3.0 0.00 0.00 0.00 59 1009.6
20260509054734 58 212 1.0 3.0 0.00 0.00 0.00 60 1009.6
20260509054512 57 274 1.0 2.0 0.00 0.00 0.00 59 1009.6
20260509053731 57 261 1.0 2.0 0.00 0.00 0.00 60 1009.6
20260509053514 57 262 1.0 2.0 0.00 0.00 0.00 61 1009.6
20260509052731 57 38 0.0 2.0 0.00 0.00 0.00 62 1009.6
20260509052231 56 25 0.0 3.0 0.00 0.00 0.00 61 1009.6
20260509051732 57 25 0.0 3.0 0.00 0.00 0.00 60 1009.7
20260509051231 57 230 1.0 3.0 0.00 0.00 0.00 60 1009.8
20260509051008 57 61 0.0 2.0 0.00 0.00 0.00 59 1009.8
20260509050229 57 61 0.0 2.0 0.00 0.00 0.00 58 1009.6
20260509045730 57 292 0.0 2.0 0.00 0.00 0.00 58 1009.6
20260509045231 57 213 0.0 2.0 0.00 0.00 0.00 59 1009.6
20260509044730 57 209 0.0 1.0 0.00 0.00 0.00 59 1009.5
20260509044229 57 209 0.0 2.0 0.00 0.00 0.00 58 1009.6
20260509043729 57 209 0.0 3.0 0.00 0.00 0.00 58 1009.6
20260509043229 57 207 1.0 3.0 0.00 0.00 0.00 60 1009.6
20260509042729 57 231 0.0 3.0 0.00 0.00 0.00 58 1009.8
20260509042508 57 293 1.0 4.0 0.00 0.00 0.00 58 1009.8
20260509041730 57 254 0.0 4.0 0.00 0.00 0.00 58 1009.8
20260509041229 57 288 0.0 4.0 0.00 0.00 0.00 58 1009.8
20260509040728 57 266 0.0 4.0 0.00 0.00 0.00 58 1009.8
20260509040510 57 343 0.0 3.0 0.00 0.00 0.00 58 1009.8
20260509035728 57 216 0.0 2.0 0.00 0.00 0.00 59 1009.8
20260509035509 57 279 0.0 2.0 0.00 0.00 0.00 60 1009.9
20260509034728 57 279 0.0 3.0 0.00 0.00 0.00 59 1009.8
20260509034512 57 252 0.0 3.0 0.00 0.00 0.00 60 1009.9
20260509033727 57 309 0.0 2.0 0.00 0.00 0.00 60 1009.8
20260509033227 57 313 0.0 2.0 0.00 0.00 0.00 61 1009.9
20260509032727 57 314 0.0 2.0 0.00 0.00 0.00 62 1009.9
20260509032224 56 0 0.0 2.0 0.00 0.00 0.00 62 1009.8
20260509031724 56 8 0.0 3.0 0.00 0.00 0.00 63 1009.9
20260509031225 56 17 1.0 3.0 0.00 0.00 0.00 63 1010.1
20260509030720 57 31 0.0 1.0 0.00 0.00 0.00 62 1010.1
20260509030504 57 31 0.0 1.0 0.00 0.00 0.00 61 1010.1
20260509025722 56 31 0.0 1.0 0.00 0.00 0.00 61 1010.1
20260509025221 57 31 0.0 1.0 0.00 0.00 0.00 62 1010.1
20260509024721 57 31 0.0 1.0 0.00 0.00 0.00 62 1010.1
20260509024219 57 31 0.0 1.0 0.00 0.00 0.00 60 1010.2
20260509023957 57 42 0.0 1.0 0.00 0.00 0.00 59 1010.2
20260509023217 57 42 0.0 1.0 0.00 0.00 0.00 59 1010.1
20260509022716 58 42 0.0 1.0 0.00 0.00 0.00 59 1010.1
20260509022215 58 42 0.0 1.0 0.00 0.00 0.00 59 1010.1
20260509021717 58 42 0.0 1.0 0.00 0.00 0.00 59 1010.1
20260509021216 58 42 0.0 1.0 0.00 0.00 0.00 58 1010.1
20260509020954 58 42 0.0 1.0 0.00 0.00 0.00 57 1010.0
20260509020451 58 42 0.0 1.0 0.00 0.00 0.00 57 1010.0
20260509015713 59 42 0.0 1.0 0.00 0.00 0.00 56 1010.0
20260509015211 59 42 0.0 1.0 0.00 0.00 0.00 57 1009.9
20260509014951 59 42 0.0 1.0 0.00 0.00 0.00 57 1009.9
20260509014211 59 42 0.0 1.0 0.00 0.00 0.00 57 1009.9
20260509013711 60 42 0.0 0.0 0.00 0.00 0.00 57 1009.9
20260509013450 60 42 0.0 1.0 0.00 0.00 0.00 56 1010.0
20260509012709 60 42 0.0 1.0 0.00 0.00 0.00 55 1010.0
20260509012210 60 42 0.0 1.0 0.00 0.00 0.00 55 1010.0
20260509011707 60 42 0.0 2.0 0.00 0.00 0.00 55 1010.0
20260509011207 60 42 0.0 2.0 0.00 0.00 0.00 57 1009.9
20260509010708 61 165 0.0 1.0 0.00 0.00 0.00 56 1009.9
20260509010207 62 165 0.0 1.0 0.00 0.00 0.00 54 1009.8
20260509005731 62 165 0.0 1.0 0.00 0.00 0.00 52 1009.7
20260509005721 62 165 0.0 0.0 0.00 0.00 0.00 54 1009.8
20260509004943 63 165 0.0 1.0 0.00 0.00 0.00 51 1009.7
20260509004202 63 165 0.0 1.0 0.00 0.00 0.00 50 1009.6
20260509003702 64 165 0.0 0.0 0.00 0.00 0.00 49 1009.6
20260509003445 65 165 0.0 1.0 0.00 0.00 0.00 48 1009.5
20260509002941 65 165 0.0 1.0 0.00 0.00 0.00 48 1009.5
20260509002203 65 166 0.0 1.0 0.00 0.00 0.00 48 1009.5
20260509001704 65 166 0.0 1.0 0.00 0.00 0.00 46 1009.5
20260509001201 66 165 0.0 0.0 0.00 0.00 0.00 47 1009.5
20260509000703 66 165 0.0 1.0 0.00 0.00 0.00 46 1009.4
20260509000145 66 165 0.0 2.0 0.00 0.00 0.00 45 1009.3